Wind_Speed
6 4 3 4 4 4 4 5 7 8 11 12 13 13 13 12 13 13 14 14 14 14 14 15 16 16 17 16 15 16 16 15
1 1 1 3 4 6 8 9 11 13 15 17 18 19 19 17 16 17 17 18 17 16 16 16 16 18 19 20 20 19 19 20
4 6 7 8 10 12 14 16 17 19 19 20 20 22 23 23 24 26 26 26 26 25 24 23 21 19 19 21 23 23 24 22
11 12 14 14 15 16 17 18 19 20 21 23 24 26 27 29 29 31 31 32 33 31 30 29 27 27 25 24 23 24 27 27
15 15 15 17 19 19 20 21 23 25 27 27 28 30 31 32 34 35 34 34 34 33 32 32 32 31 30 29 29 28 29 29
14 16 16 19 20 21 23 25 27 29 31 32 32 32 33 35 36 36 36 36 35 36 36 36 36 35 34 33 33 33 33 33
16 18 20 22 26 27 28 30 32 34 34 34 34 35 36 36 39 39 39 38 38 38 38 39 40 40 39 39 39 38 38 38
20 22 24 27 30 32 32 33 34 36 37 37 38 39 41 40 42 41 41 42 42 41 41 41 41 41 40 40 41 42 43 43
25 26 27 29 32 34 35 37 39 41 40 39 41 42 41 41 43 41 41 41 42 43 42 41 41 41 40 40 41 43 45 46
29 29 32 34 34 36 37 39 41 42 41 43 45 45 45 44 44 44 45 44 44 44 44 45 46 45 44 44 45 44 46 46
33 32 36 37 38 39 41 44 46 47 47 48 49 48 48 48 50 51 51 51 51 51 52 52 52 51 51 51 50 50 53 54
38 38 39 42 44 44 46 49 51 52 52 51 51 50 51 53 55 56 57 57 57 57 58 59 60 62 61 61 60 61 59 59
41 43 44 46 48 48 50 53 55 55 55 54 54 53 53 56 58 60 61 62 63 64 65 65 66 67 69 68 68 68 68 68
41 46 47 49 50 51 54 56 56 56 56 57 58 58 60 62 65 66 67 69 70 72 73 73 73 73 75 75 74 74 73 75
47 49 49 51 53 54 57 57 57 57 59 59 60 64 67 68 69 69 70 73 74 76 77 77 77 75 74 76 77 76 74 75
47 49 51 53 54 56 55 56 57 59 61 62 64 68 70 72 74 75 75 77 78 78 78 77 78 77 77 76 76 76 72 75
50 51 51 50 51 53 56 56 58 59 66 66 63 70 72 75 77 78 77 77 78 80 80 80 79 79 78 79 80 77 76 78
48 47 48 51 54 55 57 57 56 59 67 69 71 72 75 77 77 79 80 81 80 80 80 81 80 81 81 82 82 83 83 84
43 48 52 56 56 57 59 61 64 66 69 72 74 75 76 78 80 80 79 80 81 81 82 81 84 84 83 86 86 89 89 89
49 53 54 57 58 60 64 68 70 71 73 75 74 75 78 79 79 80 80 80 81 82 86 86 87 90 90 89 83 77 78 73
Wind_Direction
63 37 25 19 18 358 348 334 320 314 313 312 316 315 311 311 310 309 309 312 316 314 309 299 291 288 288 290 289 289 285 281
92 289 328 309 311 315 315 316 317 316 315 315 316 316 313 309 307 308 306 304 299 296 298 296 291 286 283 280 278 275 276 276
277 284 297 308 317 321 323 322 321 318 317 317 316 315 313 309 304 304 305 304 302 300 293 291 288 284 278 276 274 273 270 266
304 306 314 314 310 313 318 317 314 315 313 312 312 310 308 306 304 304 305 304 304 301 294 289 286 283 279 277 273 267 264 264
313 315 310 307 309 315 316 315 314 313 311 311 311 310 310 309 308 306 305 304 303 300 297 295 291 287 284 282 275 272 269 265
323 314 303 301 309 310 310 312 311 310 311 312 311 310 310 309 308 305 304 303 303 302 299 297 294 290 287 285 281 278 273 270
307 302 308 313 309 307 310 311 309 309 308 307 307 308 307 307 307 303 300 298 297 296 294 291 290 289 287 285 282 279 277 275
310 314 314 312 310 310 307 303 305 306 306 305 304 303 303 298 301 300 298 297 297 296 296 295 292 287 284 280 279 279 278 277
311 313 312 308 308 307 304 306 307 303 299 297 299 299 300 301 300 298 297 297 298 298 297 296 295 293 289 285 283 282 280 277
310 310 308 309 306 300 302 301 301 300 300 302 306 305 304 303 304 303 301 300 298 296 296 295 294 292 289 287 286 283 281 278
307 308 306 304 305 303 302 303 305 306 306 307 308 308 307 305 304 304 302 301 300 298 297 295 293 291 290 289 288 286 284 281
305 304 304 302 304 305 304 304 306 308 307 308 307 305 304 303 302 301 301 299 297 296 295 296 296 295 294 292 291 288 285 283
301 301 301 301 303 304 304 304 304 305 306 306 304 303 301 300 299 297 297 297 297 297 295 293 292 293 290 288 287 287 284 283
295 296 298 300 302 301 299 301 302 303 304 304 301 298 297 301 302 302 301 300 299 298 297 295 293 294 292 289 285 282 282 280
292 295 297 298 298 297 300 301 302 301 300 298 298 300 303 304 303 301 299 297 296 296 295 294 292 290 291 288 286 283 281 280
290 291 293 296 297 298 299 299 299 298 297 299 301 302 302 302 302 301 299 298 296 295 295 294 293 291 288 286 285 282 279 276
292 294 295 295 294 295 297 297 298 305 299 300 302 298 298 300 300 299 299 298 297 296 293 291 290 289 288 284 285 282 278 275
293 294 295 295 295 297 296 295 295 292 296 299 300 298 298 299 300 300 300 298 296 294 292 292 290 289 288 285 283 280 278 276
293 294 296 297 299 300 299 300 299 298 298 298 298 298 300 301 302 299 297 296 295 295 294 293 291 289 287 285 283 281 279 276
298 300 302 303 302 302 302 302 301 299 300 300 300 302 304 303 301 298 297 296 294 294 292 292 292 291 289 288 286 281 278 278
Height
5820 5821 5821 5820 5819 5818 5817 5815 5814 5812 5810 5809 5807 5805 5803 5802 5800 5798 5797 5795 5794 5791 5789 5788 5786 5784 5783 5781 5780 5779 5777 5777
5821 5820 5820 5819 5817 5816 5815 5814 5813 5810 5808 5806 5803 5801 5800 5798 5796 5795 5793 5791 5789 5788 5786 5784 5783 5781 5779 5777 5776 5774 5774 5773
5820 5819 5818 5817 5816 5815 5813 5812 5809 5808 5806 5803 5801 5799 5797 5795 5793 5791 5789 5787 5784 5782 5781 5780 5778 5776 5775 5774 5773 5771 5770 5768
5820 5819 5817 5815 5814 5812 5810 5808 5806 5803 5801 5799 5797 5795 5793 5790 5788 5785 5784 5781 5778 5776 5775 5773 5773 5771 5771 5769 5768 5768 5766 5765
5819 5816 5814 5813 5811 5809 5807 5804 5802 5800 5798 5795 5793 5790 5788 5785 5782 5780 5777 5775 5772 5770 5768 5767 5765 5764 5762 5762 5761 5761 5759 5759
5815 5814 5812 5810 5807 5805 5803 5800 5798 5795 5792 5790 5788 5784 5782 5779 5776 5773 5770 5768 5765 5763 5761 5759 5757 5755 5753 5753 5753 5752 5751 5751
5813 5811 5809 5806 5803 5801 5798 5795 5793 5790 5787 5785 5782 5779 5776 5773 5769 5765 5762 5760 5758 5756 5753 5751 5749 5747 5745 5743 5742 5742 5741 5741
5808 5807 5805 5803 5800 5796 5793 5791 5787 5784 5781 5778 5775 5772 5768 5765 5761 5757 5754 5752 5750 5747 5745 5743 5741 5739 5737 5735 5733 5732 5732 5732
5805 5803 5801 5798 5795 5791 5787 5784 5781 5778 5775 5771 5769 5765 5761 5758 5754 5750 5747 5744 5741 5739 5736 5734 5732 5730 5729 5727 5725 5724 5723 5721
5801 5798 5795 5792 5789 5785 5781 5777 5774 5770 5768 5764 5760 5756 5752 5748 5744 5741 5738 5735 5732 5729 5726 5723 5721 5719 5718 5715 5713 5713 5712 5711
5795 5794 5789 5786 5783 5778 5774 5770 5767 5762 5757 5754 5749 5745 5741 5736 5733 5730 5727 5724 5721 5717 5714 5711 5708 5706 5704 5701 5701 5701 5698 5696
5789 5786 5784 5779 5774 5771 5767 5763 5758 5754 5749 5746 5741 5736 5731 5727 5723 5720 5716 5713 5709 5706 5702 5699 5695 5691 5689 5686 5685 5683 5682 5682
5783 5778 5775 5771 5767 5764 5760 5755 5748 5744 5739 5736 5730 5726 5722 5717 5713 5709 5704 5699 5695 5690 5687 5683 5681 5677 5673 5672 5670 5669 5666 5664
5778 5772 5769 5765 5760 5755 5751 5746 5739 5734 5730 5725 5720 5715 5710 5706 5699 5693 5688 5683 5679 5675 5670 5667 5664 5659 5653 5651 5651 5652 5649 5645
5771 5766 5762 5758 5752 5747 5742 5736 5732 5726 5720 5715 5709 5703 5697 5691 5685 5680 5675 5669 5664 5658 5652 5647 5645 5644 5636 5630 5627 5629 5627 5628
5764 5760 5755 5750 5745 5739 5734 5727 5720 5714 5708 5702 5697 5690 5684 5678 5672 5667 5660 5653 5646 5640 5634 5628 5622 5623 5617 5610 5605 5605 5605 5602
5757 5752 5747 5743 5736 5729 5723 5716 5710 5704 5697 5690 5684 5678 5670 5662 5655 5647 5640 5632 5626 5619 5613 5608 5603 5597 5594 5588 5584 5581 5578 5575
5748 5742 5735 5730 5724 5718 5711 5704 5699 5693 5685 5676 5668 5660 5653 5645 5637 5629 5620 5612 5605 5598 5590 5585 5581 5574 5569 5562 5558 5554 5551 5548
5738 5732 5725 5718 5712 5706 5699 5692 5684 5676 5668 5660 5652 5644 5635 5626 5617 5608 5599 5590 5581 5573 5563 5560 5551 5546 5542 5534 5527 5520 5518 5515
5728 5721 5714 5706 5701 5694 5686 5678 5670 5661 5653 5643 5634 5625 5616 5605 5596 5587 5577 5568 5559 5551 5539 5533 5524 5514 5507 5500 5495 5490 5484 5483